Location: Nairn
(57.5833°N, 3.8667°W)
Time: 23:17:52
(UTC+00:00)

deb Explorer IX - All Passes

Search period start: 05 December 2020 00:00
Search period end: 15 December 2020 00:00
Orbit: 537 x 1105 km, 38.8° (Epoch: 05 December)

Date Brightness Start Highest point End Pass type
(mag) Time Alt. Az. Time Alt. Az. Time Alt. Az.
05 Dec - 15:55:50 10° SSW 15:58:42 13° S 16:01:26 10° SSE daylight
05 Dec - 17:43:56 10° SSW 17:44:04 10° SSW 17:44:14 10° SSW visible
06 Dec - 15:32:09 10° SSW 15:35:18 14° S 15:38:18 10° SSE daylight
06 Dec - 17:19:27 10° SSW 17:20:42 11° SSW 17:21:56 10° S visible
07 Dec - 13:25:19 10° SSE 13:26:23 10° SSE 13:27:26 10° SSE daylight
07 Dec - 15:08:29 10° SSW 15:11:53 14° S 15:15:07 10° SSE daylight
07 Dec - 16:55:32 10° SW 16:57:19 11° SSW 16:59:03 10° S visible
08 Dec - 13:01:25 10° S 13:02:56 11° SSE 13:04:26 10° SSE daylight
08 Dec - 14:44:50 10° SSW 14:48:27 15° S 14:51:54 10° SSE daylight
08 Dec - 16:31:44 10° SW 16:33:54 12° SSW 16:36:00 10° S visible
09 Dec - 12:37:41 10° S 12:39:29 11° SSE 12:41:16 10° SE daylight
09 Dec - 14:21:12 10° SSW 14:25:00 15° S 14:28:39 10° SE daylight
09 Dec - 16:07:59 10° SW 16:10:29 12° SSW 16:12:54 10° S daylight
10 Dec - 12:14:00 10° S 12:16:01 11° SSE 12:18:01 10° SE daylight
10 Dec - 13:57:36 10° SSW 14:01:33 16° S 14:05:21 10° SE daylight
10 Dec - 15:44:17 10° SW 15:47:04 13° SSW 15:49:43 10° S daylight
11 Dec - 11:50:24 10° S 11:52:33 11° SSE 11:54:42 10° SE daylight
11 Dec - 13:34:01 10° SSW 13:38:05 16° S 13:42:01 10° SE daylight
11 Dec - 15:20:37 10° SW 15:23:36 13° SSW 15:26:30 10° S daylight
12 Dec - 11:26:51 10° S 11:29:04 12° SSE 11:31:18 10° SE daylight
12 Dec - 13:10:27 10° SSW 13:14:36 16° S 13:18:39 10° SE daylight
12 Dec - 14:56:59 10° SW 15:00:09 13° SSW 15:03:13 10° S daylight
13 Dec - 11:03:19 10° S 11:05:35 12° SSE 11:07:51 10° SE daylight
13 Dec - 12:46:55 10° SSW 12:51:06 16° S 12:55:14 10° SE daylight
13 Dec - 14:33:22 10° SW 14:36:41 14° SSW 14:39:54 10° S daylight
14 Dec - 10:39:52 10° S 10:42:07 12° SSE 10:44:22 10° SE daylight
14 Dec - 12:23:23 10° SSW 12:27:37 16° S 12:31:49 10° SE daylight
14 Dec - 14:09:47 10° SW 14:13:12 14° SSW 14:16:33 10° SSE daylight
